This demonstration page uses our WeatherBlox Daily Observations layout. Learn more.

39.51506, -84.39828

Hourly Observations for November 4, 2019

Temp ( °F °C ) Dew Point ( °F °C ) Humidity (%) Winds ( mph kmh ) Pressure ( in mb ) Visibility ( mi km ) Precip ( " mm )
12:15 am 00:15 Clear 43 5.9 32 0.1 67 67 SW 6 9 30.18 1022 10 16.0934 0 0
12:35 am 00:35 Clear 43 6.1 31 -0.7 62 62 SSW 6 9 30.17 1022 10 16.0934 0 0
12:55 am 00:55 Clear 41 5.2 31 -0.5 67 67 SW 6 9 30.17 1022 10 16.0934 0 0
1:15 am 01:15 Clear 42 5.4 32 0.1 69 69 WSW 3 6 30.17 1022 10 16.0934 0 0
1:35 am 01:35 Clear 41 4.9 31 -0.4 69 69 SSW 5 7 30.16 1021 10 16.0934 0 0
1:55 am 01:55 Clear 38 3.5 30 -0.9 73 73 S 6 9 30.16 1021 10 16.0934 0 0
2:15 am 02:15 Clear 37 2.6 32 -0.1 83 83 Calm 30.16 1021 10 16.0934 0 0
2:35 am 02:35 Clear 36 2.3 32 0.1 86 86 Calm 30.17 1022 10 16.0934 0 0
2:55 am 02:55 Clear 36 2.4 32 0 84 84 Calm 30.16 1021 10 16.0934 0 0
3:15 am 03:15 Clear 35 1.8 31 -0.6 84 84 Calm 30.17 1022 10 16.0934 0 0
3:35 am 03:35 Clear 34 1 32 -0.2 92 92 Calm 30.17 1022 10 16.0934 0 0
3:55 am 03:55 Clear 33 0.4 31 -0.8 92 92 Calm 30.18 1022 10 16.0934 0 0
4:15 am 04:15 Partly Cloudy 32 0.2 31 -0.8 93 93 Calm 30.16 1021 10 16.0934 0 0
4:35 am 04:35 Clear 33 0.4 32 -0.1 96 96 Calm 30.16 1021 10 16.0934 0 0
4:55 am 04:55 Clear 33 0.4 31 -0.4 94 94 Calm 30.15 1021 10 16.0934 0 0
5:15 am 05:15 Clear 32 0.2 31 -0.6 94 94 SW 3 6 30.16 1021 10 16.0934 0 0
5:35 am 05:35 Clear 34 0.9 30 -1.2 86 86 Calm 30.16 1021 10 16.0934 0 0
5:55 am 05:55 Clear 35 1.6 30 -0.9 84 84 Calm 30.16 1021 10 16.0934 0 0
6:15 am 06:15 Clear 35 1.8 32 -0.2 87 87 Calm 30.16 1021 10 16.0934 0 0
6:35 am 06:35 Clear 34 1.2 31 -0.6 88 88 Calm 30.16 1021 10 16.0934 0 0
6:55 am 06:55 Clear 34 1.2 31 -0.3 90 90 Calm 30.17 1022 10 16.0934 0 0
7:15 am 07:15 Sunny 35 1.6 32 -0.1 89 89 SW 3 6 30.16 1021 10 16.0934 0 0
7:35 am 07:35 Sunny 36 2 30 -1.2 80 80 SSW 5 7 30.17 1022 10 16.0934 0 0
7:55 am 07:55 Sunny 38 3.5 31 -0.8 74 74 SSW 5 7 30.17 1022 10 16.0934 0 0
8:15 am 08:15 Sunny 40 4.7 31 -0.3 70 70 SSW 7 11 30.16 1021 10 16.0934 0 0
8:35 am 08:35 Sunny 42 5.8 31 -0.6 64 64 SSW 9 15 30.16 1021 10 16.0934 0 0
8:55 am 08:55 Sunny 45 7.1 32 0 61 61 SSW 9 15 30.16 1021 10 16.0934 0 0
9:15 am 09:15 Sunny 46 7.8 31 -0.4 56 56 SSW 13 20 30.15 1021 10 16.0934 0 0
9:35 am 09:35 Sunny 47 8.1 31 -0.5 55 55 SSW 13 20 30.15 1021 10 16.0934 0 0
9:55 am 09:55 Sunny 49 9.3 31 -0.3 51 51 SSW 13 20 30.15 1021 10 16.0934 0 0
10:15 am 10:15 Sunny 49 9.7 32 0.1 52 52 SSW 12 19 30.14 1021 10 16.0934 0 0
10:35 am 10:35 Sunny 52 10.9 33 0.4 49 49 SSW 13 20 30.13 1020 10 16.0934 0 0
10:55 am 10:55 Sunny 53 11.5 34 0.9 48 48 SSW 12 19 30.13 1020 10 16.0934 0 0
11:15 am 11:15 Sunny 54 12.3 35 1.4 48 48 SW 10 17 30.12 1020 10 16.0934 0 0
11:35 am 11:35 Sunny 55 12.7 35 1.6 47 47 SSW 15 24 30.11 1020 10 16.0934 0 0
11:55 am 11:55 Sunny 56 13.1 35 1.7 46 46 SW 20 31 30.1 1019 10 16.0934 0 0
12:15 pm 12:15 Sunny 56 13.6 35 1.6 44 44 SW 20 31 30.09 1019 10 16.0934 0 0
12:35 pm 12:35 Sunny 57 13.8 35 1.7 44 44 SW 20 31 30.09 1019 10 16.0934 0 0
12:55 pm 12:55 Sunny 57 13.9 35 1.6 44 44 SW 22 35 30.08 1019 10 16.0934 0 0
1:15 pm 13:15 Sunny 58 14.2 35 1.7 43 43 SW 17 28 30.08 1019 10 16.0934 0 0
1:35 pm 13:35 Sunny 57 14.1 35 1.9 44 44 SW 13 20 30.07 1018 10 16.0934 0 0
1:55 pm 13:55 Partly Cloudy 59 14.9 35 1.9 42 42 SW 14 22 30.07 1018 10 16.0934 0 0
2:15 pm 14:15 Sunny 60 15.4 35 1.9 40 40 SSW 21 33 30.07 1018 10 16.0934 0 0
2:35 pm 14:35 Partly Cloudy 59 15.1 35 1.7 41 41 SSW 20 31 30.06 1018 10 16.0934 0 0
2:55 pm 14:55 Partly Cloudy 60 15.3 34 1.3 39 39 SW 16 26 30.06 1018 10 16.0934 0 0
3:15 pm 15:15 Mostly Cloudy 59 15 35 1.7 41 41 SW 16 26 30.06 1018 10 16.0934 0 0
3:35 pm 15:35 Cloudy 60 15.3 36 2.1 41 41 SW 16 26 30.06 1018 10 16.0934 0 0
3:55 pm 15:55 Partly Cloudy 60 15.4 35 1.5 39 39 SSW 18 30 30.06 1018 10 16.0934 0 0
4:15 pm 16:15 Cloudy 59 14.9 34 0.9 39 39 SSW 16 26 30.07 1018 10 16.0934 0 0
4:35 pm 16:35 Cloudy 58 14.7 34 1 40 40 SSW 15 24 30.07 1018 10 16.0934 0 0
4:55 pm 16:55 Mostly Cloudy 58 14.4 34 1.2 41 41 SW 13 20 30.07 1018 10 16.0934 0 0
5:15 pm 17:15 Cloudy 57 13.9 35 1.7 44 44 SW 9 15 30.08 1019 10 16.0934 0 0
5:35 pm 17:35 Mostly Cloudy 56 13.5 35 1.9 46 46 SW 7 11 30.08 1019 10 16.0934 0 0
5:55 pm 17:55 Cloudy 55 13 35 1.9 47 47 SSW 7 11 30.08 1019 10 16.0934 0 0
6:15 pm 18:15 Cloudy 55 12.5 36 2.1 49 49 SSW 6 9 30.08 1019 10 16.0934 0 0
6:35 pm 18:35 Cloudy 55 12.8 35 1.9 48 48 SSW 6 9 30.08 1019 10 16.0934 0 0
6:55 pm 18:55 Cloudy 53 11.5 37 3 56 56 SW 5 7 30.1 1019 10 16.0934 0 0
7:15 pm 19:15 Cloudy 52 11.1 38 3.4 59 59 Calm 30.11 1020 10 16.0934 0 0
7:35 pm 19:35 Cloudy with Light Rain 52 10.9 39 3.9 62 62 Calm 30.1 1019 10 16.0934 0 0
7:55 pm 19:55 Partly Cloudy 51 10.3 42 5.6 73 73 Calm 30.1 1019 10 16.0934 0 0
8:15 pm 20:15 Partly Cloudy 48 9.1 44 6.6 85 85 Calm 30.11 1020 10 16.0934 0 0
8:35 pm 20:35 Cloudy 48 8.8 44 6.5 86 86 Calm 30.11 1020 10 16.0934 0 0
8:55 pm 20:55 Cloudy 49 9.6 42 5.7 77 77 SW 3 6 30.12 1020 10 16.0934 0 0
9:15 pm 21:15 Cloudy with Light Rain 48 9.1 43 6.1 82 82 Calm 30.12 1020 10 16.0934 0 0
9:35 pm 21:35 Cloudy 49 9.5 42 5.5 76 76 WSW 3 6 30.13 1020 10 16.0934 0 0
9:55 pm 21:55 Cloudy with Light Rain 49 9.3 43 6.2 81 81 SW 3 6 30.14 1021 10 16.0934 0 0
10:15 pm 22:15 Cloudy with Light Rain 49 9.7 42 5.7 76 76 Calm 30.14 1021 10 16.0934 0 0
10:35 pm 22:35 Cloudy 50 9.8 42 5.8 76 76 Calm 30.13 1020 10 16.0934 0 0
10:55 pm 22:55 Cloudy 48 9.1 43 5.9 81 81 Calm 30.14 1021 10 16.0934 0 0
11:15 pm 23:15 Cloudy 48 8.9 44 6.4 85 85 W 3 6 30.15 1021 10 16.0934 0 0
11:35 pm 23:35 Cloudy 48 8.8 44 6.4 85 85 Calm 30.15 1021 10 16.0934 0 0
11:55 pm 23:55 Cloudy 49 9.4 42 5.6 77 77 Calm 30.15 1021 10 16.0934 0 0

Powered by AerisWeather